DW9566 Weather Reports


time (UTC)temp
F
wind
direction
speed
knots
gust
knots
rain 1hr
in
rain 24hr
in
rain mn
in
humidity
%
barometer
mb
20260506163622 62 222 2.6 4.3 0.00 0.00 0.00 72 1020.6
20260506162630 60 192 0.9 1.7 0.00 0.00 0.00 72 1020.6
20260506161653 60 239 0.9 2.6 0.00 0.00 0.00 73 1020.6
20260506160634 60 271 1.7 2.6 0.00 0.00 0.00 73 1020.6
20260506155631 59 196 0.0 3.5 0.00 0.01 0.00 74 1020.6
20260506154616 59 203 1.7 3.5 0.00 0.01 0.00 76 1020.6
20260506153643 59 219 1.7 4.3 0.00 0.01 0.00 75 1020.6
20260506152629 58 172 0.9 1.7 0.00 0.01 0.00 76 1020.5
20260506151650 58 172 0.9 3.5 0.00 0.01 0.00 75 1020.5
20260506150614 58 22 0.9 1.7 0.00 0.01 0.00 77 1020.5
20260506145619 57 272 0.9 0.9 0.00 0.01 0.00 78 1020.5
20260506144622 57 272 0.9 1.7 0.00 0.01 0.00 80 1020.5
20260506143627 56 276 0.0 0.0 0.00 0.01 0.00 82 1020.5
20260506142631 54 276 0.0 0.0 0.00 0.01 0.00 82 1020.3
20260506141617 53 277 0.0 0.0 0.00 0.01 0.00 81 1020.3
20260506140622 53 277 0.0 0.0 0.00 0.01 0.00 81 1020.0
20260506135643 53 277 0.0 0.0 0.00 0.01 0.00 81 1019.9
20260506134624 54 277 0.0 0.9 0.00 0.01 0.00 80 1019.9
20260506133629 54 277 0.9 1.7 0.00 0.01 0.00 80 1019.9
20260506132635 54 277 0.0 1.7 0.00 0.01 0.00 80 1019.8
20260506131617 54 277 0.0 0.0 0.00 0.01 0.00 80 1019.8
20260506130622 54 277 0.0 2.6 0.00 0.01 0.00 80 1019.5
20260506125619 54 277 0.9 1.7 0.00 0.01 0.00 79 1019.5
20260506124646 54 277 0.0 0.9 0.00 0.01 0.00 79 1019.5
20260506123630 54 277 0.9 3.5 0.00 0.01 0.00 79 1019.5
20260506122633 54 267 0.9 3.5 0.00 0.01 0.00 79 1019.4
20260506121635 54 281 0.9 2.6 0.00 0.01 0.00 79 1019.4
20260506120622 54 290 0.0 1.7 0.00 0.01 0.00 79 1019.5
20260506115618 54 285 0.0 2.6 0.00 0.01 0.00 80 1019.4
20260506114641 54 296 0.9 1.7 0.00 0.01 0.00 80 1019.4
20260506113623 54 277 0.9 2.6 0.00 0.01 0.00 80 1019.2
20260506112625 54 263 0.9 2.6 0.00 0.01 0.00 80 1019.0
20260506111634 54 261 1.7 3.5 0.00 0.01 0.00 80 1019.0
20260506110657 54 274 0.9 3.5 0.00 0.01 0.00 80 1019.0
20260506105634 54 290 0.9 3.5 0.00 0.01 0.00 80 1019.0
20260506104616 54 277 1.7 2.6 0.00 0.01 0.00 80 1019.0
20260506103623 54 288 0.0 3.5 0.00 0.01 0.00 80 1019.0
20260506102629 54 339 0.0 2.6 0.00 0.01 0.00 80 1018.9
20260506101614 54 269 1.7 2.6 0.00 0.01 0.00 80 1018.9
20260506100639 54 308 0.9 3.5 0.00 0.01 0.00 81 1018.9
20260506095623 54 287 0.0 1.7 0.00 0.02 0.00 81 1018.9
20260506094630 53 327 0.9 2.6 0.00 0.02 0.00 81 1018.9
20260506093632 53 271 1.7 2.6 0.00 0.02 0.00 81 1018.9
20260506092618 53 269 0.9 2.6 0.00 0.02 0.00 81 1018.9
20260506091641 53 318 0.0 2.6 0.00 0.02 0.00 81 1018.9
20260506090628 54 269 0.9 2.6 0.00 0.02 0.00 81 1018.9
20260506085632 54 275 0.9 1.7 0.00 0.06 0.00 81 1018.9
20260506084639 54 275 0.0 2.6 0.00 0.06 0.00 81 1018.9
20260506083621 54 263 1.7 2.6 0.00 0.06 0.00 81 1018.9
20260506082643 54 263 1.7 3.5 0.00 0.06 0.00 81 1019.0
20260506081631 54 306 0.9 3.5 0.00 0.06 0.00 81 1019.0
20260506080634 54 310 0.0 2.6 0.00 0.06 0.00 81 1019.0
20260506072642 53 276 1.7 4.3 0.00 0.09 0.06 81 1018.6
20260506071624 53 265 2.6 5.2 0.00 0.09 0.06 82 1018.6
20260506070647 53 257 3.5 5.2 0.00 0.09 0.06 82 1018.5
20260506061621 53 263 2.6 3.5 0.00 0.10 0.06 80 1018.3
20260506060630 54 292 1.7 2.6 0.00 0.10 0.06 80 1018.4
20260506050626 55 242 3.5 7.0 0.00 0.11 0.06 78 1017.9
20260506044628 55 293 2.6 6.1 0.00 0.11 0.06 78 1017.8
20260506043615 55 269 3.5 7.0 0.00 0.11 0.06 78 1017.5
20260506042620 55 229 2.6 6.1 0.00 0.11 0.06 78 1017.4
20260506041622 56 228 2.6 3.5 0.00 0.11 0.06 78 1017.4
20260506040629 56 232 2.6 4.3 0.00 0.11 0.06 78 1017.3
20260506035647 56 220 3.5 6.1 0.00 0.11 0.06 78 1017.1
20260506034628 56 222 2.6 6.1 0.00 0.11 0.06 77 1017.1
20260506033631 56 226 2.6 7.0 0.00 0.11 0.06 77 1016.8
20260506032654 56 219 2.6 5.2 0.00 0.11 0.06 77 1016.7
20260506031619 57 221 4.3 8.7 0.00 0.11 0.06 76 1016.7
20260506030642 57 226 2.6 7.8 0.00 0.11 0.06 76 1016.3
20260506025617 57 229 3.5 6.1 0.00 0.11 0.06 75 1016.4
20260506024623 58 264 3.5 6.1 0.00 0.11 0.06 74 1016.4
20260506023630 58 236 4.3 7.8 0.00 0.11 0.06 74 1016.3
20260506022617 58 238 3.5 8.7 0.00 0.11 0.06 74 1016.2
20260506021619 59 216 6.1 9.6 0.00 0.11 0.06 73 1016.2
20260506020621 59 234 4.3 8.7 0.00 0.11 0.06 73 1016.1
20260506015620 59 202 5.2 7.8 0.00 0.11 0.06 73 1015.9
20260506014627 60 211 4.3 8.7 0.00 0.11 0.06 73 1015.9
20260506013632 60 234 3.5 8.7 0.00 0.11 0.06 72 1015.9
20260506012654 60 221 4.3 7.0 0.00 0.11 0.06 72 1016.0
20260506011656 60 252 5.2 8.7 0.00 0.11 0.06 72 1016.0
20260506010657 61 227 5.2 8.7 0.00 0.11 0.06 72 1015.9
20260506005619 61 222 4.3 8.7 0.00 0.11 0.06 71 1015.8
20260506004621 61 277 4.3 8.7 0.00 0.11 0.06 72 1015.8
20260506003623 61 217 6.1 7.8 0.00 0.11 0.06 72 1015.8
20260506002626 61 225 4.3 7.0 0.00 0.11 0.06 71 1015.7
20260506001614 61 204 4.3 7.0 0.00 0.11 0.06 71 1015.7
20260506000621 61 221 3.5 7.8 0.00 0.11 0.06 70 1015.6
20260505235617 61 257 2.6 7.0 0.00 0.11 0.06 71 1015.7
20260505234619 61 292 4.3 7.8 0.00 0.11 0.06 72 1015.7
20260505233628 61 242 4.3 7.8 0.00 0.11 0.06 71 1015.7
20260505232633 61 261 2.6 7.8 0.00 0.11 0.06 72 1015.7
20260505231617 61 196 3.5 8.7 0.00 0.11 0.06 72 1015.7
20260505230639 62 234 3.5 7.0 0.00 0.11 0.06 71 1015.8
20260505225633 62 248 4.3 7.0 0.00 0.11 0.06 70 1015.6
20260505224623 63 226 3.5 7.0 0.00 0.11 0.06 69 1015.6
20260505223630 64 201 2.6 7.8 0.00 0.11 0.06 68 1015.6
20260505222635 64 250 3.5 9.6 0.00 0.11 0.06 69 1015.7
20260505221617 64 208 5.2 7.8 0.00 0.11 0.06 68 1015.7
20260505220646 63 262 4.3 7.0 0.00 0.11 0.06 71 1015.8
20260505215642 62 171 3.5 6.1 0.00 0.11 0.06 70 1015.8
20260505214623 62 271 2.6 7.0 0.00 0.11 0.06 71 1015.8
20260505213629 62 246 3.5 6.1 0.00 0.11 0.06 71 1015.9
20260505212631 61 244 3.5 7.0 0.00 0.11 0.06 72 1015.9
20260505211617 61 271 3.5 6.1 0.00 0.11 0.06 71 1015.9
20260505210619 61 233 4.3 6.1 0.00 0.11 0.06 73 1015.9
20260505205619 61 232 2.6 6.1 0.00 0.11 0.06 74 1016.0
20260505204621 60 262 2.6 5.2 0.00 0.11 0.06 74 1016.0
20260505203628 60 273 3.5 5.2 0.00 0.11 0.06 74 1015.9
20260505202630 60 233 2.6 5.2 0.00 0.11 0.06 74 1016.0
20260505201652 60 261 3.5 6.1 0.00 0.11 0.06 75 1016.0
20260505200637 59 237 4.3 6.1 0.00 0.11 0.06 76 1016.1
20260505195618 59 265 2.6 7.8 0.00 0.11 0.06 76 1016.1
20260505194622 59 239 4.3 9.6 0.00 0.11 0.06 75 1016.1
20260505193624 60 205 4.3 8.7 0.00 0.11 0.06 75 1016.1
20260505192629 60 262 3.5 6.1 0.00 0.11 0.06 74 1016.1
20260505191614 60 239 3.5 6.1 0.00 0.11 0.06 76 1016.1
20260505190620 59 242 2.6 7.8 0.00 0.11 0.06 76 1016.0
20260505185620 59 221 3.5 6.1 0.00 0.11 0.06 77 1015.9
20260505184642 59 260 3.5 6.1 0.00 0.11 0.06 77 1015.9
20260505183627 59 241 3.5 6.1 0.00 0.11 0.06 78 1015.8
20260505182653 58 316 1.7 5.2 0.00 0.11 0.06 78 1015.8
20260505181634 58 256 2.6 7.0 0.00 0.11 0.06 79 1015.8
20260505180616 58 267 3.5 6.1 0.00 0.11 0.06 80 1015.8
20260505175636 58 293 2.6 7.8 0.00 0.11 0.06 82 1015.8
20260505174622 58 229 2.6 8.7 0.00 0.11 0.06 84 1015.8
20260505173644 57 259 2.6 5.2 0.00 0.11 0.06 85 1015.5
20260505172626 57 281 2.6 5.2 0.00 0.11 0.06 86 1015.6
20260505171631 56 213 2.6 5.2 0.00 0.11 0.06 86 1015.6
20260505170633 56 227 0.0 2.6 0.00 0.11 0.06 86 1015.7
20260505165622 56 267 0.9 2.6 0.00 0.11 0.06 86 1015.6
20260505164624 55 229 1.7 3.5 0.00 0.11 0.06 86 1015.6